Wind_Speed
7 6 6 6 6 7 7 8 8 9 8 8 8 9 9 9 9 10 10 11 11 11 11 11 11 11 11 11 11 11 12 11 11 12 13 13 12 12 12 13 12 12 13
7 7 7 7 7 7 8 9 9 9 9 9 9 9 9 9 10 10 10 11 11 11 11 11 12 11 10 11 11 11 12 12 12 12 13 13 13 13 13 13 13 13 13
8 8 7 7 8 8 9 9 9 8 9 9 10 10 10 10 10 10 10 10 10 11 11 11 12 11 11 11 11 12 12 12 13 13 13 13 14 14 13 13 13 14 14
8 8 7 7 8 9 9 9 9 9 9 10 10 10 10 10 10 10 10 10 10 10 10 11 11 11 11 11 11 11 12 11 12 13 13 13 14 14 14 14 15 15 15
8 8 8 9 9 9 9 8 9 9 10 10 10 10 10 10 11 11 11 10 11 11 11 11 11 11 11 11 12 11 12 13 13 13 13 14 14 14 14 15 15 16 16
8 9 9 9 9 9 9 9 9 9 10 10 10 10 10 10 11 11 11 11 11 11 11 11 11 11 10 10 11 12 12 12 13 13 13 14 14 14 14 14 15 16 16
8 8 9 9 9 9 9 9 9 9 9 10 10 10 10 11 11 12 11 11 11 11 12 12 11 10 10 10 10 11 12 13 13 13 14 14 14 14 15 15 15 15 16
9 8 9 9 9 9 9 9 9 9 9 10 10 10 11 11 11 11 11 11 12 11 11 11 10 10 11 10 11 12 13 13 14 14 14 15 15 15 15 15 15 15 16
10 10 9 9 9 9 9 9 9 9 9 10 10 11 10 10 10 10 10 11 11 11 11 11 11 11 12 12 12 12 13 14 14 15 15 15 16 16 16 16 16 17 16
11 11 10 10 10 9 9 9 9 9 9 10 10 10 10 10 10 10 10 10 10 10 10 11 11 12 12 12 13 13 14 14 14 14 15 15 15 15 15 15 16 16 17
11 12 11 11 11 10 10 10 10 10 10 10 10 10 10 10 11 10 11 11 10 10 11 11 11 12 12 12 13 13 13 13 13 14 14 14 15 15 15 15 16 16 17
12 12 11 11 11 11 10 10 9 10 10 10 10 10 10 10 10 11 11 11 11 10 11 11 11 12 12 12 12 12 13 13 14 14 14 14 15 15 16 16 17 17 17
11 12 11 11 11 11 10 9 10 10 10 10 10 10 10 10 10 11 11 12 11 12 12 12 12 12 11 11 11 12 12 13 14 14 15 15 15 16 16 18 18 18 17
12 11 11 11 11 11 11 10 10 10 10 10 10 10 10 10 11 12 12 12 12 12 13 13 13 13 12 12 12 12 13 13 13 14 15 15 16 16 17 18 19 19 19
12 12 12 11 11 11 11 10 11 11 11 11 11 11 10 11 12 12 12 12 13 13 13 14 14 14 13 13 13 13 13 13 14 15 15 16 16 17 18 18 19 19 20
12 12 13 12 12 12 11 10 10 10 11 11 11 11 11 11 11 12 12 12 13 13 14 14 14 14 14 14 13 13 14 13 14 16 16 17 17 18 19 19 20 20 20
12 12 11 11 11 11 10 10 10 10 11 11 10 10 10 11 12 12 12 12 13 13 14 14 14 14 14 13 13 14 15 15 16 17 18 18 19 20 20 20 21 21 21
12 12 11 10 9 9 9 9 10 10 10 10 10 10 11 11 12 12 12 12 13 13 13 13 13 13 13 13 14 15 16 17 18 19 19 20 21 21 21 21 21 22 23
13 12 12 11 11 11 11 11 10 10 9 10 10 10 11 11 11 12 12 12 12 13 13 13 14 14 14 15 15 16 17 18 19 19 20 21 22 22 22 22 23 24 25
13 12 13 12 12 12 12 11 11 10 10 10 11 11 11 11 12 13 13 13 13 13 14 14 14 15 16 16 16 17 18 19 20 21 21 22 23 23 23 23 24 24 25
13 13 13 13 13 12 11 11 12 12 12 12 12 12 12 12 13 14 14 14 14 14 15 15 15 16 16 17 18 19 20 20 21 23 23 24 24 24 24 25 25 26 27
13 13 13 14 14 13 12 12 12 12 13 13 13 13 13 13 14 14 15 14 15 15 16 16 17 17 17 18 19 20 21 22 23 25 26 26 26 26 26 27 28 28 29
14 14 14 14 15 15 14 14 13 13 13 13 13 14 14 14 15 15 15 16 16 17 17 18 18 19 20 21 22 23 24 25 26 27 27 28 28 28 28 28 29 29 30
15 15 15 15 15 15 15 14 14 14 14 14 14 15 16 16 16 16 17 17 19 19 19 20 21 22 22 23 24 25 26 27 28 28 29 29 29 30 30 31 31 32 33
16 17 15 15 15 15 15 14 15 15 15 15 16 16 17 17 17 18 19 19 20 20 21 21 22 23 24 25 26 27 28 29 29 29 29 30 30 31 32 33 34 35 35
18 17 16 15 15 15 15 15 16 16 16 16 17 17 17 17 18 19 19 20 21 21 22 22 24 25 26 27 28 29 29 30 30 30 31 32 32 33 33 34 35 35 36
Wind_Direction
266 280 282 291 298 304 310 315 317 317 316 314 314 314 310 307 303 299 296 292 289 288 289 286 283 282 277 273 270 268 269 269 267 258 257 261 263 266 269 266 267 269 267
273 278 282 284 292 301 305 312 315 317 316 315 313 312 307 304 302 300 297 295 292 288 288 289 286 285 281 275 274 273 271 267 269 264 260 262 263 266 269 269 269 270 270
273 275 281 284 292 300 303 306 308 311 309 313 314 311 309 305 304 302 301 301 297 293 292 292 291 288 281 278 277 277 277 274 270 266 263 263 264 266 267 268 269 270 272
270 272 281 288 294 297 299 299 301 304 306 310 313 314 312 311 310 305 304 303 301 299 297 296 294 290 286 283 279 278 277 282 276 269 268 269 270 266 266 268 267 268 270
272 276 283 292 293 292 294 295 297 301 303 307 311 314 314 313 312 311 308 304 300 299 299 297 294 292 287 283 280 280 280 284 282 273 272 272 272 271 270 269 269 272 272
274 276 280 288 293 291 290 294 297 299 302 306 311 314 315 315 313 311 309 305 301 301 298 295 294 290 285 283 284 284 282 283 282 275 272 273 274 272 272 275 274 274 274
273 276 279 286 290 291 291 294 294 297 302 305 309 312 316 315 314 312 311 308 305 302 299 297 292 290 289 287 287 285 285 283 282 279 275 275 275 274 274 275 276 276 275
269 274 280 283 283 287 292 293 292 296 301 305 308 313 317 316 314 311 312 311 308 305 302 301 298 295 295 291 289 289 292 289 287 285 281 279 279 277 277 278 277 276 276
266 271 278 278 278 285 289 289 291 294 299 304 307 310 315 316 316 316 314 314 313 309 306 303 301 301 297 294 293 292 293 294 289 285 286 284 283 283 282 279 278 278 280
265 269 271 271 275 280 284 288 289 293 299 304 307 309 313 317 318 317 317 316 316 315 310 306 302 302 298 294 294 295 297 295 291 290 290 289 285 283 283 282 279 278 278
263 266 267 267 270 274 279 283 287 289 295 299 303 306 310 315 319 320 322 320 318 316 315 313 308 306 301 297 295 296 297 295 295 294 294 290 285 283 283 284 282 281 282
262 263 263 267 267 270 276 280 284 288 292 297 300 304 308 313 317 319 322 322 319 317 318 318 317 315 310 302 298 298 296 293 293 295 297 293 289 286 286 287 286 286 284
260 263 263 265 267 268 272 276 283 287 293 300 300 303 309 314 315 319 322 323 321 321 320 318 317 316 315 311 307 303 301 299 298 297 296 294 293 290 288 286 286 285 283
260 261 261 262 265 267 269 270 280 284 289 297 300 301 305 308 311 314 317 319 320 320 322 321 320 318 316 315 314 311 309 305 303 302 300 297 296 293 290 288 287 284 282
260 264 264 266 268 268 265 269 274 280 285 293 295 296 300 304 308 311 312 314 316 317 318 318 317 316 312 311 312 312 310 307 306 305 301 299 298 298 294 292 289 286 283
261 265 269 265 266 264 264 270 276 282 286 290 293 294 297 304 307 311 312 313 314 315 317 319 319 318 315 312 310 311 312 311 310 307 303 301 301 302 298 294 291 287 284
261 265 267 263 263 261 265 270 276 283 286 290 293 297 301 305 307 310 308 311 313 316 318 319 320 320 318 314 310 310 308 308 309 308 306 304 303 301 298 294 291 288 285
263 265 263 262 263 264 267 271 279 284 289 291 293 296 301 306 309 310 308 308 312 315 317 319 321 322 319 315 312 310 309 309 310 309 307 307 306 302 298 294 291 289 287
260 259 257 258 263 265 265 270 276 280 286 292 295 295 298 304 307 309 309 309 312 313 314 316 318 320 318 315 314 314 313 312 311 309 307 306 306 304 300 296 294 292 290
257 254 256 257 260 263 268 270 273 277 283 289 293 296 296 298 303 306 306 306 308 310 311 313 316 317 317 316 315 314 313 312 311 309 307 307 306 305 303 300 298 295 292
258 258 258 258 258 260 265 270 271 273 278 283 288 294 295 299 301 303 304 303 305 308 308 309 312 313 314 314 313 312 310 310 309 308 307 307 308 307 304 303 301 298 296
258 257 259 261 258 259 264 271 275 274 276 280 287 292 292 296 300 303 304 304 306 306 308 309 309 310 311 311 311 311 310 312 310 309 310 310 309 306 304 302 301 301 299
259 257 258 259 259 262 265 270 272 275 279 281 285 290 290 291 297 299 302 303 302 304 306 308 309 309 309 311 312 313 313 314 312 310 309 310 309 307 304 302 301 301 301
256 257 259 258 259 263 265 268 270 274 280 284 287 290 289 290 294 296 299 302 301 302 302 304 305 307 308 309 310 310 311 311 311 310 309 308 308 307 305 303 301 300 300
258 258 258 257 257 261 265 268 271 274 278 283 286 290 289 290 292 294 297 302 303 301 301 301 303 305 306 307 308 308 309 309 309 309 308 307 306 305 304 303 302 300 300
259 256 256 258 258 261 265 269 271 274 276 281 285 289 289 290 292 294 298 301 303 302 301 302 303 304 305 306 307 307 308 309 309 308 307 307 306 305 304 303 302 301 300
Height
5889 5889 5889 5889 5889 5888 5888 5887 5886 5885 5884 5884 5883 5882 5881 5880 5879 5879 5878 5877 5877 5876 5876 5876 5876 5876 5876 5876 5877 5877 5878 5878 5879 5879 5880 5880 5881 5881 5881 5882 5882 5882 5882
5888 5888 5888 5888 5887 5887 5886 5886 5885 5884 5883 5882 5881 5881 5880 5879 5878 5877 5876 5875 5875 5875 5874 5874 5874 5874 5874 5874 5874 5875 5875 5876 5876 5876 5877 5878 5878 5878 5878 5879 5879 5879 5879
5886 5886 5886 5886 5886 5885 5885 5884 5883 5883 5882 5881 5880 5879 5878 5877 5876 5875 5874 5874 5873 5873 5872 5872 5871 5871 5871 5872 5872 5872 5873 5873 5873 5874 5874 5874 5875 5876 5876 5876 5876 5876 5876
5884 5885 5885 5884 5884 5884 5883 5882 5882 5881 5880 5879 5879 5878 5877 5875 5874 5873 5872 5872 5871 5871 5870 5870 5869 5869 5869 5869 5869 5870 5870 5870 5870 5871 5871 5871 5872 5872 5872 5873 5873 5873 5873
5883 5883 5883 5883 5882 5882 5881 5881 5880 5880 5879 5878 5877 5876 5875 5874 5873 5872 5871 5870 5869 5869 5868 5867 5867 5867 5867 5867 5867 5867 5867 5868 5868 5868 5868 5868 5869 5869 5869 5869 5869 5870 5870
5881 5881 5881 5881 5881 5880 5880 5879 5879 5878 5878 5877 5876 5875 5873 5872 5871 5870 5869 5868 5867 5867 5866 5865 5865 5864 5864 5864 5864 5864 5865 5865 5864 5865 5865 5865 5866 5865 5866 5866 5866 5866 5866
5879 5879 5879 5879 5879 5879 5878 5878 5877 5877 5876 5875 5874 5873 5872 5871 5869 5868 5867 5866 5865 5864 5864 5863 5862 5862 5862 5862 5862 5862 5862 5862 5862 5862 5862 5862 5862 5862 5862 5862 5863 5862 5862
5877 5877 5877 5877 5877 5877 5877 5876 5876 5875 5874 5874 5873 5872 5871 5870 5868 5866 5865 5864 5863 5862 5861 5861 5860 5860 5860 5860 5860 5860 5859 5859 5859 5859 5858 5858 5858 5859 5859 5858 5859 5858 5858
5874 5875 5875 5875 5876 5875 5875 5875 5874 5873 5873 5872 5871 5870 5869 5868 5867 5865 5864 5862 5861 5860 5860 5859 5858 5858 5858 5857 5857 5857 5856 5856 5855 5855 5855 5854 5854 5854 5854 5854 5854 5854 5854
5872 5872 5873 5873 5873 5873 5873 5873 5872 5872 5871 5870 5869 5868 5867 5866 5865 5864 5863 5861 5860 5859 5858 5857 5856 5855 5854 5854 5854 5853 5853 5852 5852 5851 5851 5851 5851 5850 5850 5850 5850 5850 5850
5869 5870 5870 5870 5871 5871 5870 5870 5870 5869 5869 5868 5867 5866 5865 5864 5863 5862 5861 5860 5858 5857 5856 5854 5853 5852 5851 5851 5850 5850 5849 5849 5848 5848 5847 5847 5847 5846 5846 5846 5846 5845 5845
5866 5867 5867 5868 5868 5868 5868 5868 5868 5867 5867 5866 5865 5864 5864 5863 5862 5861 5859 5858 5857 5855 5854 5852 5851 5850 5848 5847 5847 5846 5845 5845 5844 5844 5844 5843 5843 5842 5842 5842 5841 5841 5840
5863 5864 5864 5865 5865 5865 5865 5866 5865 5865 5864 5864 5863 5863 5862 5861 5860 5859 5858 5856 5855 5854 5852 5850 5849 5847 5846 5844 5843 5842 5842 5841 5841 5840 5840 5839 5839 5838 5838 5837 5837 5836 5836
5860 5861 5861 5862 5862 5862 5863 5863 5863 5862 5862 5862 5861 5860 5860 5859 5858 5857 5856 5854 5853 5852 5850 5848 5846 5844 5843 5842 5841 5839 5839 5838 5837 5836 5836 5835 5834 5834 5833 5832 5832 5831 5831
5857 5858 5858 5858 5859 5859 5860 5860 5860 5860 5860 5859 5859 5858 5857 5856 5856 5855 5853 5852 5851 5850 5848 5846 5844 5842 5840 5838 5838 5837 5836 5835 5834 5833 5832 5831 5830 5829 5827 5826 5825 5825 5825
5854 5854 5855 5855 5856 5856 5857 5857 5858 5857 5857 5857 5856 5856 5855 5854 5853 5852 5851 5850 5848 5847 5845 5843 5840 5838 5836 5835 5834 5834 5833 5832 5831 5830 5828 5827 5825 5823 5821 5820 5819 5819 5818
5851 5851 5852 5852 5853 5853 5854 5855 5855 5855 5854 5854 5854 5853 5852 5852 5851 5850 5849 5847 5846 5844 5842 5840 5837 5835 5833 5832 5831 5831 5830 5829 5827 5826 5824 5822 5820 5818 5816 5814 5813 5812 5812
5848 5848 5849 5849 5850 5851 5851 5852 5852 5852 5852 5851 5851 5850 5850 5849 5848 5847 5846 5845 5843 5841 5840 5838 5835 5833 5831 5830 5829 5828 5826 5825 5824 5822 5820 5818 5815 5813 5811 5809 5807 5806 5805
5844 5845 5846 5847 5847 5848 5848 5849 5849 5849 5849 5849 5848 5847 5847 5846 5845 5844 5843 5842 5840 5839 5837 5835 5833 5831 5829 5828 5826 5825 5823 5821 5820 5818 5815 5813 5811 5808 5806 5803 5802 5800 5799
5840 5841 5842 5843 5844 5845 5845 5846 5846 5846 5846 5846 5845 5844 5844 5843 5842 5841 5840 5839 5837 5836 5834 5833 5831 5829 5827 5825 5823 5822 5820 5817 5815 5813 5811 5808 5806 5803 5801 5798 5796 5794 5792
5837 5838 5839 5840 5841 5842 5842 5843 5843 5843 5843 5843 5842 5841 5841 5840 5839 5838 5836 5835 5834 5833 5831 5830 5828 5826 5824 5822 5820 5818 5816 5813 5811 5808 5806 5803 5800 5798 5795 5792 5789 5787 5785
5833 5834 5835 5836 5837 5838 5839 5839 5839 5839 5840 5839 5839 5838 5837 5837 5835 5834 5833 5831 5830 5829 5828 5826 5824 5822 5820 5818 5816 5813 5811 5809 5806 5803 5800 5797 5794 5791 5788 5785 5782 5779 5777
5829 5830 5831 5832 5833 5834 5835 5835 5836 5836 5836 5836 5835 5835 5834 5833 5832 5831 5829 5828 5826 5825 5824 5822 5820 5818 5816 5813 5811 5808 5805 5803 5800 5797 5794 5790 5787 5784 5781 5777 5774 5772 5769
5825 5826 5827 5828 5829 5830 5831 5831 5832 5832 5832 5831 5831 5831 5830 5829 5828 5827 5826 5824 5822 5820 5819 5817 5815 5813 5810 5808 5805 5802 5799 5797 5794 5790 5787 5783 5780 5776 5773 5769 5766 5763 5760
5821 5822 5823 5824 5825 5825 5826 5827 5827 5827 5827 5827 5827 5826 5826 5825 5824 5822 5821 5820 5817 5815 5813 5811 5809 5807 5804 5801 5799 5796 5793 5790 5786 5783 5779 5776 5772 5769 5765 5761 5757 5753 5750
5816 5817 5818 5819 5820 5821 5822 5823 5823 5823 5823 5823 5822 5822 5821 5820 5819 5817 5816 5814 5812 5810 5808 5805 5803 5801 5798 5795 5792 5789 5786 5782 5778 5775 5771 5768 5764 5760 5757 5753 5748 5743 5739